TL TrainLive
Get the app
54012

SDLP TKJ PAS

Pass

SDLP → TKJ · 02:40 – 09:08 · 6h 28m · 227 km

Live running status
Run completed at TILAK BRIDGE — 30 min late
100% of the run · 0 km/h

Route & timetable

39 stops
# Station Arr Dep Halt km Day PF
1 Sadulpur Junction SDLP 02:40 02:40 0 1
2 Harpalu HR 02:50 02:51 1m 13 1
3 Rampura Beri RMB 03:07 03:09 2m 29 1
4 Parvezpur PVZ 03:18 03:20 2m 38 1
5 Loharu LHU 03:35 03:40 5m 49 1
6 Sohansra SAWN 03:46 03:47 1m 56 1
7 Satnali STNL 03:57 03:59 2m 67 1
8 Nanwan NWN 04:06 04:07 1m 71 1
9 Nangal Degrota NDRT 04:14 04:15 1m 77 1
10 Zarpur Pali ZP 04:22 04:23 1m 83 1
11 Mahendragarh MHRG 04:31 04:33 2m 90 1
12 Bojawas BJWS 04:42 04:43 1m 97 1
13 Gurha Kemla GRKA 04:49 04:50 1m 102 1
14 Kanina Khas KNNK 04:56 04:57 1m 107 1
15 Dahina Zainabad DZB 05:07 05:09 2m 116 1
16 Nangal Mundi NNU 05:18 05:20 2m 128 1
17 REWARI RE 05:55 06:05 10m 141 1
18 KUMBHAWAS MUNDA KWMD 06:13 06:14 1m 148 1
19 KHALILPUR KIP 06:20 06:21 1m 152 1
20 INCHHAPURI IHP 06:29 06:30 1m 158 1
21 PATAUDI ROAD PTRD 06:37 06:38 1m 162 1
22 JATAULA SAMPHKA JSKA 06:44 06:45 1m 167 1
23 TAJ NAGAR TNJR 06:51 06:52 1m 170 1
24 PATLI PT 06:58 06:59 1m 174 1
25 GARHI HARSARU GHH 07:08 07:09 1m 182 1
26 BASAI DHANKOT BDXT 07:16 07:17 1m 188 1
27 GURGAON GGN 07:22 07:24 2m 192 1
28 BIJWASAN BWSN 07:33 07:34 1m 199 1
29 SHAHABAD MOHAMADPUR SMDP 07:39 07:40 1m 202 1
30 PALAM PM 07:46 07:47 1m 206 1
31 DELHI CANTT DEC 07:53 07:55 2m 209 1
32 PATEL NAGAR PTNR 08:08 08:09 1m 215 1
33 DAYA BASTI DBSI 08:21 08:22 1m 217 1
34 VIVEKANAND PURI HALT VVKP 08:26 08:27 1m 218 1
35 DELHI KISHANGANJ DKZ 08:31 08:32 1m 220 1
36 DELHI SADAR BAZAR DSB 08:39 08:40 1m 222 1
37 New Delhi NDLS 08:50 08:52 2m 224 1
38 SHIVAJI BRIDGE CSB 08:58 08:59 1m 225 1
39 TILAK BRIDGE TKJ 09:08 09:08 227 1

Service details

Type
Pass
Distance
227 km
Duration
6h 28m
Avg speed
35 km/h
Pantry car
Not published
Classes
Not published
Runs on
Not published

Coach position

Order from the engine.

SLR
Luggage / Guard
ENG
Locomotive
SLR
Luggage / Guard

Rake composition can change at short notice. Confirm on the station display board.